Location: Newark
(33.8183°N, 118.0392°W)
Time: 08:34:42
(UTC+00:00)

LightSail 2 - Visible Passes

Search period start: 21 October 2019 00:00
Search period end: 31 October 2019 00:00
Orbit: 707 x 722 km, 24.0° (Epoch: 20 October)

Date Brightness Start Highest point End Pass type
(mag) Time Alt. Az. Time Alt. Az. Time Alt. Az.
21 Oct 7.1 01:49:54 10° WSW 01:53:48 22° S 01:57:42 10° SE visible
21 Oct 7.7 03:37:58 10° SSW 03:38:41 10° SSW 03:38:42 10° SSW visible
22 Oct 7.5 02:38:49 10° SW 02:41:17 13° SSW 02:43:44 10° S visible
23 Oct 7.5 01:40:39 10° SW 01:43:51 17° SSW 01:47:04 10° SSE visible
25 Oct 7.8 01:32:15 10° SW 01:33:50 11° SSW 01:35:25 10° S visible
